Time,TemperatureF,DewpointF,PressureIn,WindDirection,WindDirectionDegrees,WindSpeedMPH,WindSpeedGustMPH,Humidity,HourlyPrecipIn,Conditions,Clouds,dailyrainin,SolarRadiationWatts/m^2,SoftwareType,DateUTC
2013-10-25 00:41:00,42.0,36.0,-100.00,SE,146,9.0,12.0,79,0.00,,,0.00,0.000000,,2013-10-25 06:41:00,
2013-10-25 00:51:00,42.0,36.0,-100.00,SE,146,9.0,12.0,79,0.00,,,0.00,0.000000,,2013-10-25 06:51:00,
2013-10-25 01:41:00,41.0,36.0,-100.00,SE,144,9.0,11.0,82,0.00,,,0.00,0.000000,,2013-10-25 07:41:00,
2013-10-25 01:51:00,41.0,36.0,-100.00,SE,144,9.0,11.0,82,0.00,,,0.00,0.000000,,2013-10-25 07:51:00,
2013-10-25 02:21:00,40.0,35.0,-100.00,SSE,149,7.0,11.0,81,0.00,,,0.00,0.000000,,2013-10-25 08:21:00,
2013-10-25 02:31:00,40.0,35.0,-100.00,SSE,149,7.0,11.0,81,0.00,,,0.00,0.000000,,2013-10-25 08:31:00,
2013-10-25 02:41:00,40.0,35.0,-100.00,SSE,149,7.0,11.0,81,0.00,,,0.00,0.000000,,2013-10-25 08:41:00,
2013-10-25 02:51:00,40.0,35.0,-100.00,SSE,149,7.0,11.0,81,0.00,,,0.00,0.000000,,2013-10-25 08:51:00,
2013-10-25 03:42:00,40.0,35.0,-100.00,SE,143,8.0,10.0,82,0.00,,,0.00,0.000000,,2013-10-25 09:42:00,
2013-10-25 03:52:00,40.0,35.0,-100.00,SE,143,8.0,10.0,82,0.00,,,0.00,0.000000,,2013-10-25 09:52:00,
2013-10-25 04:22:00,37.0,33.0,-100.00,SSE,148,7.0,10.0,85,0.00,,,0.00,0.000000,,2013-10-25 10:22:00,
2013-10-25 04:32:00,37.0,33.0,-100.00,SSE,148,7.0,10.0,85,0.00,,,0.00,0.000000,,2013-10-25 10:32:00,
2013-10-25 04:41:00,37.0,33.0,-100.00,SSE,148,7.0,10.0,85,0.00,,,0.00,0.000000,,2013-10-25 10:41:00,
2013-10-25 04:51:00,37.0,33.0,-100.00,SSE,148,7.0,10.0,85,0.00,,,0.00,0.000000,,2013-10-25 10:51:00,
2013-10-25 05:41:00,40.0,35.0,-100.00,SE,135,9.0,11.0,83,0.00,,,0.00,0.000000,,2013-10-25 11:41:00,
2013-10-25 05:51:00,40.0,35.0,-100.00,SE,135,9.0,11.0,83,0.00,,,0.00,0.000000,,2013-10-25 11:51:00,
2013-10-25 06:21:00,39.0,33.0,-100.00,SE,140,8.0,11.0,79,0.00,,,0.00,0.000000,,2013-10-25 12:21:00,
2013-10-25 06:31:00,39.0,33.0,-100.00,SE,140,8.0,11.0,79,0.00,,,0.00,0.000000,,2013-10-25 12:31:00,
2013-10-25 06:41:00,39.0,33.0,-100.00,SE,140,8.0,11.0,79,0.00,,,0.00,0.000000,,2013-10-25 12:41:00,
2013-10-25 06:51:00,39.0,33.0,-100.00,SE,140,8.0,11.0,79,0.00,,,0.00,0.000000,,2013-10-25 12:51:00,
2013-10-25 07:41:00,38.0,33.0,-100.00,SE,132,7.0,9.0,81,0.00,,,0.00,0.000000,,2013-10-25 13:41:00,
2013-10-25 07:52:00,38.0,33.0,-100.00,SE,132,7.0,9.0,81,0.00,,,0.00,0.000000,,2013-10-25 13:52:00,
2013-10-25 08:42:00,34.0,29.0,-100.00,SE,143,6.0,10.0,81,0.00,,,0.00,4.000000,,2013-10-25 14:42:00,
2013-10-25 09:43:00,39.0,34.0,-100.00,SSE,153,7.0,9.0,83,0.00,,,0.00,109.000000,,2013-10-25 15:43:00,
2013-10-25 10:43:00,47.0,38.0,-100.00,SSE,165,6.0,9.0,71,0.00,,,0.00,262.000000,,2013-10-25 16:43:00,
2013-10-25 10:53:00,47.0,38.0,-100.00,SSE,165,6.0,9.0,71,0.00,,,0.00,262.000000,,2013-10-25 16:53:00,
2013-10-25 11:22:00,56.0,41.0,-100.00,SSW,201,3.0,8.0,58,0.00,,,0.00,391.000000,,2013-10-25 17:22:00,
2013-10-25 11:33:00,56.0,41.0,-100.00,SSW,201,3.0,8.0,58,0.00,,,0.00,391.000000,,2013-10-25 17:33:00,
2013-10-25 11:43:00,56.0,41.0,-100.00,SSW,201,3.0,8.0,58,0.00,,,0.00,391.000000,,2013-10-25 17:43:00,
2013-10-25 11:52:00,56.0,41.0,-100.00,SSW,201,3.0,8.0,58,0.00,,,0.00,391.000000,,2013-10-25 17:52:00,
2013-10-25 12:42:00,61.0,43.0,-100.00,NW,312,4.0,7.0,51,0.00,,,-99.99,482.000000,,2013-10-25 18:42:00,
2013-10-25 12:52:00,61.0,43.0,-100.00,NW,312,4.0,7.0,51,0.00,,,-99.99,482.000000,,2013-10-25 18:52:00,
2013-10-25 13:42:00,65.0,42.0,-100.00,NNW,346,6.0,10.0,43,0.00,,,0.00,522.000000,,2013-10-25 19:42:00,
2013-10-25 13:52:00,65.0,42.0,-100.00,NNW,346,6.0,10.0,43,0.00,,,0.00,522.000000,,2013-10-25 19:52:00,
2013-10-25 14:22:00,66.0,38.0,-100.00,NNW,331,8.0,15.0,35,0.00,,,0.00,511.000000,,2013-10-25 20:22:00,
2013-10-25 14:32:00,66.0,38.0,-100.00,NNW,331,8.0,15.0,35,0.00,,,0.00,511.000000,,2013-10-25 20:32:00,
2013-10-25 14:42:00,66.0,38.0,-100.00,NNW,331,8.0,15.0,35,0.00,,,0.00,511.000000,,2013-10-25 20:42:00,
2013-10-25 14:52:00,66.0,38.0,-100.00,NNW,331,8.0,15.0,35,0.00,,,0.00,511.000000,,2013-10-25 20:52:00,
2013-10-25 15:43:00,67.0,37.0,-100.00,NNW,340,9.0,14.0,33,0.00,,,0.00,448.000000,,2013-10-25 21:43:00,
2013-10-25 15:54:00,67.0,37.0,-100.00,NNW,340,9.0,14.0,33,0.00,,,0.00,448.000000,,2013-10-25 21:54:00,
2013-10-25 16:42:00,67.0,37.0,-100.00,NNW,343,6.0,15.0,33,0.00,,,0.00,342.000000,,2013-10-25 22:42:00,
2013-10-25 16:52:00,67.0,37.0,-100.00,NNW,343,6.0,15.0,33,0.00,,,0.00,342.000000,,2013-10-25 22:52:00,
2013-10-25 17:22:00,65.0,34.0,-100.00,NNW,343,6.0,10.0,31,0.00,,,0.00,208.000000,,2013-10-25 23:22:00,
2013-10-25 17:34:00,65.0,34.0,-100.00,NNW,343,6.0,10.0,31,0.00,,,0.00,208.000000,,2013-10-25 23:34:00,
2013-10-25 17:42:00,65.0,34.0,-100.00,NNW,343,6.0,10.0,31,0.00,,,0.00,208.000000,,2013-10-25 23:42:00,
2013-10-25 17:52:00,65.0,34.0,-100.00,NNW,343,6.0,10.0,31,0.00,,,0.00,208.000000,,2013-10-25 23:52:00,
2013-10-25 18:22:00,61.0,34.0,-100.00,NNE,16,4.0,9.0,36,0.00,,,0.00,61.000000,,2013-10-26 00:22:00,
2013-10-25 18:32:00,61.0,34.0,-100.00,NNE,16,4.0,9.0,36,0.00,,,0.00,61.000000,,2013-10-26 00:32:00,
2013-10-25 18:42:00,61.0,34.0,-100.00,NNE,16,4.0,9.0,36,0.00,,,0.00,61.000000,,2013-10-26 00:42:00,
2013-10-25 18:52:00,61.0,34.0,-100.00,NNE,16,4.0,9.0,36,0.00,,,0.00,61.000000,,2013-10-26 00:52:00,
2013-10-25 19:42:00,56.0,34.0,-100.00,ENE,64,4.0,8.0,43,0.00,,,0.00,2.000000,,2013-10-26 01:42:00,
2013-10-25 19:52:00,56.0,34.0,-100.00,ENE,64,4.0,8.0,43,0.00,,,0.00,2.000000,,2013-10-26 01:52:00,
2013-10-25 20:43:00,50.0,32.0,-100.00,South,184,1.0,5.0,50,0.00,,,0.00,0.000000,,2013-10-26 02:43:00,
2013-10-25 20:52:00,50.0,32.0,-100.00,South,184,1.0,5.0,50,0.00,,,0.00,0.000000,,2013-10-26 02:52:00,
2013-10-25 21:22:00,47.0,34.0,-100.00,SE,126,5.0,6.0,61,0.00,,,0.00,0.000000,,2013-10-26 03:22:00,
2013-10-25 21:35:00,47.0,34.0,-100.00,SE,126,5.0,6.0,61,0.00,,,0.00,0.000000,,2013-10-26 03:35:00,
2013-10-25 21:44:00,47.0,34.0,-100.00,SE,126,5.0,6.0,61,0.00,,,0.00,0.000000,,2013-10-26 03:44:00,
2013-10-25 21:54:00,47.0,34.0,-100.00,SE,126,5.0,6.0,61,0.00,,,0.00,0.000000,,2013-10-26 03:54:00,
2013-10-25 22:44:00,44.0,33.0,-100.00,SE,132,7.0,8.0,66,0.00,,,0.00,0.000000,,2013-10-26 04:44:00,
2013-10-25 23:23:00,42.0,33.0,-100.00,SE,136,8.0,11.0,71,0.00,,,0.00,0.000000,,2013-10-26 05:23:00,
2013-10-25 23:34:00,42.0,33.0,-100.00,SE,136,8.0,11.0,71,0.00,,,0.00,0.000000,,2013-10-26 05:34:00,
2013-10-25 23:43:00,42.0,33.0,-100.00,SE,136,8.0,11.0,71,0.00,,,0.00,0.000000,,2013-10-26 05:43:00,
2013-10-25 23:52:00,42.0,33.0,-100.00,SE,136,8.0,11.0,71,0.00,,,0.00,0.000000,,2013-10-26 05:52:00,